GW3949 Weather Reports


Display with metric or nautical units.
time (UTC)temp
F
wind
direction
speed
MPH
gust
MPH
rain 1hr
in
rain 24hr
in
rain mn
in
humidity
%
barometer
mb
20260504185406 65 258 5.0 15.0 0.00 0.00 0.00 49 1007.4
20260504184905 65 256 7.0 15.0 0.00 0.00 0.00 49 1007.6
20260504184405 65 301 5.0 15.0 0.00 0.00 0.00 48 1007.6
20260504183905 65 260 7.0 16.0 0.00 0.00 0.00 48 1007.7
20260504182905 64 262 9.0 16.0 0.00 0.00 0.00 49 1007.8
20260504182405 65 270 5.0 14.0 0.00 0.00 0.00 49 1007.8
20260504181905 64 222 6.0 13.0 0.00 0.00 0.00 49 1007.9
20260504180905 64 254 9.0 14.0 0.00 0.00 0.00 48 1008.0
20260504180405 64 229 5.0 20.0 0.00 0.00 0.00 48 1008.0
20260504175905 65 236 10.0 20.0 0.00 0.00 0.00 48 1008.0
20260504175405 64 253 7.0 14.0 0.00 0.00 0.00 48 1008.0
20260504174405 64 230 7.0 14.0 0.00 0.00 0.00 49 1008.2
20260504173905 64 258 6.0 15.0 0.00 0.00 0.00 48 1008.2
20260504172905 63 296 7.0 17.0 0.00 0.00 0.00 48 1008.5
20260504172405 63 270 8.0 15.0 0.00 0.00 0.00 48 1008.4
20260504171905 63 255 7.0 14.0 0.00 0.00 0.00 48 1008.3
20260504171406 63 213 8.0 13.0 0.00 0.00 0.00 49 1008.5
20260504170905 63 204 5.0 17.0 0.00 0.00 0.00 49 1008.5
20260504170405 62 208 7.0 18.0 0.00 0.00 0.00 49 1008.7
20260504160406 61 251 8.0 18.0 0.00 0.00 0.00 50 1009.3
20260504150905 58 290 9.0 20.0 0.00 0.00 0.00 50 1010.2
20260504140905 55 215 6.0 15.0 0.00 0.00 0.00 51 1010.3
20260504140405 55 234 9.0 16.0 0.00 0.00 0.00 50 1010.3
20260504130404 52 231 7.0 13.0 0.00 0.00 0.00 53 1010.5
20260504110405 48 220 7.0 12.0 0.00 0.00 0.00 58 1010.7
20260504100405 46 220 5.0 8.0 0.00 0.00 0.00 60 1010.8
20260504081905 47 252 6.0 12.0 0.00 0.00 0.00 59 1011.2
20260504081404 47 257 7.0 13.0 0.00 0.00 0.00 59 1011.2
20260504080905 47 258 6.0 12.0 0.00 0.00 0.00 59 1011.1
20260504080404 47 289 6.0 12.0 0.00 0.00 0.00 59 1011.2
20260504070405 48 235 5.0 7.0 0.00 0.00 0.00 58 1011.1
20260504045405 49 296 6.0 9.0 0.00 0.00 0.00 57 1011.4
20260504044905 49 286 4.0 12.0 0.00 0.00 0.00 57 1011.4
20260504044404 49 309 5.0 7.0 0.00 0.00 0.00 57 1011.4
20260504043404 49 288 4.0 8.0 0.00 0.00 0.00 57 1011.4
20260504042904 49 317 5.0 8.0 0.00 0.00 0.00 57 1011.3
20260504042405 49 322 5.0 8.0 0.00 0.00 0.00 57 1011.2
20260504041904 49 321 3.0 7.0 0.00 0.00 0.00 57 1011.2
20260504041404 49 296 5.0 10.0 0.00 0.00 0.00 57 1011.1
20260504040904 49 294 3.0 8.0 0.00 0.00 0.00 57 1011.1
20260504040405 49 328 4.0 9.0 0.00 0.00 0.00 57 1011.1
20260504035404 49 3 2.0 6.0 0.00 0.00 0.00 57 1011.1
20260504034904 49 278 4.0 8.0 0.00 0.00 0.00 57 1011.1
20260504034404 49 308 4.0 9.0 0.00 0.00 0.00 57 1011.1
20260504033907 49 302 4.0 8.0 0.00 0.00 0.00 57 1011.0
20260504033404 49 326 3.0 6.0 0.00 0.00 0.00 57 1011.0
20260504032904 49 311 4.0 7.0 0.00 0.00 0.00 57 1011.0
20260504032404 49 308 3.0 6.0 0.00 0.00 0.00 57 1011.1
20260504031904 49 321 3.0 7.0 0.00 0.00 0.00 56 1011.1
20260504031404 49 278 2.0 7.0 0.00 0.00 0.00 57 1011.1
20260504030904 49 327 4.0 9.0 0.00 0.00 0.00 56 1011.0
20260504025904 49 333 3.0 9.0 0.00 0.00 0.00 56 1011.1
20260504024904 49 330 2.0 6.0 0.00 0.00 0.00 56 1011.1
20260504024403 49 342 3.0 6.0 0.00 0.00 0.00 56 1011.1
20260504023904 49 263 3.0 7.0 0.00 0.00 0.00 56 1011.1
20260504023405 49 326 5.0 9.0 0.00 0.00 0.00 56 1011.1
20260504022404 50 328 4.0 7.0 0.00 0.00 0.00 55 1011.1
20260504021905 50 311 5.0 9.0 0.00 0.00 0.00 55 1011.2
20260504020904 50 295 3.0 8.0 0.00 0.00 0.00 55 1011.2
20260504020404 50 325 3.0 7.0 0.00 0.00 0.00 54 1011.2
20260504014404 50 287 4.0 12.0 0.00 0.00 0.00 54 1011.1
20260504013905 50 285 5.0 9.0 0.00 0.00 0.00 54 1011.1
20260504013404 50 267 3.0 8.0 0.00 0.00 0.00 54 1011.0
20260504012905 50 245 4.0 9.0 0.00 0.00 0.00 54 1011.0
20260504012404 50 282 3.0 7.0 0.00 0.00 0.00 53 1011.0
20260504011404 50 260 3.0 6.0 0.00 0.00 0.00 53 1010.9
20260504010404 51 316 4.0 8.0 0.00 0.00 0.00 53 1010.9
20260504005904 51 331 4.0 8.0 0.00 0.00 0.00 52 1010.9
20260504005405 51 310 5.0 8.0 0.00 0.00 0.00 52 1010.8
20260504004904 51 300 4.0 9.0 0.00 0.00 0.00 52 1010.7
20260504004404 51 342 5.0 10.0 0.00 0.00 0.00 52 1010.7
20260504003905 51 344 5.0 12.0 0.00 0.00 0.00 52 1010.7
20260504003404 51 322 5.0 9.0 0.00 0.00 0.00 51 1010.6
20260504002904 51 295 4.0 9.0 0.00 0.00 0.00 51 1010.5
20260504002404 51 323 4.0 7.0 0.00 0.00 0.00 51 1010.5
20260504001904 52 336 3.0 7.0 0.00 0.00 0.00 50 1010.4
20260504001403 52 281 4.0 8.0 0.00 0.00 0.00 50 1010.3
20260504000404 52 349 5.0 9.0 0.00 0.00 0.00 49 1010.3
20260503235904 52 310 4.0 7.0 0.00 0.00 0.00 49 1010.3
20260503235404 52 341 5.0 12.0 0.00 0.00 0.00 49 1010.2
20260503234904 53 349 5.0 12.0 0.00 0.00 0.00 49 1010.2
20260503234404 53 344 6.0 13.0 0.00 0.00 0.00 48 1010.2
20260503233904 53 317 4.0 13.0 0.00 0.00 0.00 48 1010.2
20260503233404 53 334 7.0 12.0 0.00 0.00 0.00 48 1010.0
20260503232904 53 351 7.0 12.0 0.00 0.00 0.00 48 1010.0
20260503231904 53 0 7.0 12.0 0.00 0.00 0.00 48 1009.9
20260503231404 53 0 9.0 20.0 0.00 0.00 0.00 47 1009.9
20260503230904 54 351 7.0 14.0 0.00 0.00 0.00 47 1009.9
20260503230404 54 0 10.0 18.0 0.00 0.00 0.00 46 1010.0
20260503225904 54 358 7.0 15.0 0.00 0.00 0.00 46 1009.9
20260503225404 54 340 9.0 18.0 0.00 0.00 0.00 46 1010.0
20260503224904 54 5 5.0 13.0 0.00 0.00 0.00 47 1009.9
20260503224404 54 356 10.0 18.0 0.00 0.00 0.00 46 1009.9
20260503223904 54 358 9.0 16.0 0.00 0.00 0.00 46 1009.9
20260503222903 54 354 10.0 17.0 0.00 0.00 0.00 46 1009.9
20260503222404 54 0 6.0 15.0 0.00 0.00 0.00 47 1009.9
20260503221903 54 352 9.0 17.0 0.00 0.00 0.00 46 1009.9
20260503221404 54 356 10.0 17.0 0.00 0.00 0.00 46 1009.9
20260503220904 55 353 11.0 23.0 0.00 0.00 0.00 46 1009.9
20260503220404 55 354 7.0 13.0 0.00 0.00 0.00 47 1009.9
20260503215404 54 10 9.0 16.0 0.00 0.00 0.00 47 1009.9
20260503214903 54 353 10.0 16.0 0.00 0.00 0.00 46 1009.9
20260503214404 55 358 11.0 16.0 0.00 0.00 0.00 46 1009.9
20260503213904 55 0 9.0 13.0 0.00 0.00 0.00 46 1009.9
20260503213404 55 352 11.0 18.0 0.00 0.00 0.00 46 1009.8
20260503212904 54 354 8.0 13.0 0.00 0.00 0.00 47 1009.8
20260503212404 54 0 12.0 18.0 0.00 0.00 0.00 46 1009.7
20260503211904 54 356 9.0 14.0 0.00 0.00 0.00 45 1009.7
20260503211403 54 0 10.0 17.0 0.00 0.00 0.00 46 1009.6
20260503210904 54 344 9.0 15.0 0.00 0.00 0.00 46 1009.8
20260503210404 54 338 8.0 15.0 0.00 0.00 0.00 46 1009.8
20260503205404 53 350 11.0 17.0 0.00 0.00 0.00 45 1009.7
20260503204904 53 0 10.0 20.0 0.00 0.00 0.00 45 1009.6
20260503203904 53 0 12.0 20.0 0.00 0.00 0.00 45 1009.7
20260503203404 53 346 9.0 15.0 0.00 0.00 0.00 46 1009.8
20260503202904 53 356 9.0 17.0 0.00 0.00 0.00 46 1009.7
20260503202403 53 356 8.0 17.0 0.00 0.00 0.00 45 1009.8
20260503201904 53 0 13.0 21.0 0.00 0.00 0.00 45 1009.8
20260503201403 53 0 10.0 17.0 0.00 0.00 0.00 46 1009.8
20260503200904 53 353 8.0 15.0 0.00 0.00 0.00 46 1009.8
20260503200403 53 358 12.0 16.0 0.00 0.00 0.00 45 1009.9
20260503195903 53 2 7.0 14.0 0.00 0.00 0.00 46 1009.8
20260503195404 53 346 9.0 15.0 0.00 0.00 0.00 45 1009.9
20260503194904 52 0 10.0 17.0 0.00 0.00 0.00 46 1010.0
20260503194404 52 0 9.0 16.0 0.00 0.00 0.00 46 1010.2
20260503193904 52 353 11.0 20.0 0.00 0.00 0.00 45 1010.2
20260503193404 52 0 10.0 25.0 0.00 0.00 0.00 45 1010.2
20260503191905 51 358 13.0 24.0 0.00 0.00 0.00 46 1010.2
20260503191405 51 345 11.0 20.0 0.00 0.00 0.00 46 1010.2
20260503190906 51 0 10.0 17.0 0.00 0.00 0.00 46 1010.3
20260503190405 51 0 14.0 23.0 0.00 0.00 0.00 47 1010.4